| time (UTC) | temp F | wind direction | speed MPH | gust MPH | rain 1hr in | rain 24hr in | rain mn in | humidity % | barometer mb |
| 20260903201204 | 86 | 292 | 1.0 | 5.0 | 0.00 | 1.49 | 1.30 | 74 | 1013.6 |
| 20260903195704 | 86 | 341 | 1.0 | 8.0 | 0.00 | 1.49 | 1.30 | 76 | 1013.6 |
| 20260903195203 | 86 | 295 | 1.0 | 7.0 | 0.00 | 1.49 | 1.30 | 76 | 1013.6 |
| 20260903194703 | 86 | 357 | 2.0 | 7.0 | 0.00 | 1.49 | 1.30 | 74 | 1013.6 |
| 20260903193704 | 85 | 287 | 2.0 | 7.0 | 0.00 | 1.49 | 1.30 | 77 | 1013.8 |
| 20260903193203 | 86 | 292 | 2.0 | 7.0 | 0.00 | 1.49 | 1.30 | 77 | 1013.7 |
| 20260903192704 | 87 | 239 | 1.0 | 5.0 | 0.00 | 1.49 | 1.30 | 77 | 1014.0 |
| 20260903192205 | 87 | 286 | 1.0 | 5.0 | 0.00 | 1.49 | 1.30 | 74 | 1013.8 |
| 20260903191703 | 89 | 230 | 1.0 | 5.0 | 0.00 | 1.49 | 1.30 | 73 | 1014.0 |
| 20260903191203 | 88 | 313 | 1.0 | 3.0 | 0.00 | 1.49 | 1.30 | 75 | 1013.9 |
| 20260903190704 | 87 | 266 | 1.0 | 3.0 | 0.00 | 1.49 | 1.30 | 75 | 1014.3 |
| 20260903190203 | 87 | 300 | 0.0 | 5.0 | 0.00 | 1.49 | 1.30 | 74 | 1014.1 |
| 20260903185204 | 87 | 288 | 2.0 | 7.0 | 0.00 | 1.49 | 1.30 | 75 | 1014.5 |
| 20260903184704 | 87 | 268 | 1.0 | 5.0 | 0.00 | 1.49 | 1.30 | 77 | 1014.4 |
| 20260903184204 | 85 | 308 | 1.0 | 8.0 | 0.00 | 1.49 | 1.30 | 79 | 1014.4 |
| 20260903183204 | 86 | 251 | 4.0 | 8.0 | 0.00 | 1.49 | 1.30 | 77 | 1014.5 |
| 20260903182203 | 86 | 271 | 1.0 | 7.0 | 0.00 | 1.49 | 1.30 | 79 | 1014.5 |
| 20260903181704 | 86 | 229 | 1.0 | 5.0 | 0.00 | 1.49 | 1.30 | 81 | 1014.5 |
| 20260903181204 | 85 | 276 | 2.0 | 8.0 | 0.00 | 1.49 | 1.30 | 78 | 1014.5 |
| 20260903180704 | 85 | 286 | 0.0 | 7.0 | 0.00 | 1.49 | 1.30 | 82 | 1014.6 |
| 20260903175704 | 84 | 272 | 1.0 | 8.0 | 0.00 | 1.51 | 1.30 | 79 | 1014.9 |
| 20260903175204 | 84 | 273 | 5.0 | 9.0 | 0.00 | 1.52 | 1.30 | 78 | 1014.7 |
| 20260903174704 | 84 | 238 | 3.0 | 9.0 | 0.00 | 1.53 | 1.30 | 79 | 1015.0 |
| 20260903174203 | 84 | 278 | 2.0 | 7.0 | 0.00 | 1.54 | 1.30 | 80 | 1014.8 |
| 20260903173704 | 84 | 281 | 2.0 | 5.0 | 0.00 | 1.56 | 1.30 | 78 | 1014.9 |
| 20260903173203 | 83 | 264 | 2.0 | 7.0 | 0.00 | 1.57 | 1.30 | 79 | 1014.9 |
| 20260903172703 | 83 | 280 | 2.0 | 7.0 | 0.00 | 1.58 | 1.30 | 79 | 1014.9 |
| 20260903172203 | 83 | 289 | 1.0 | 5.0 | 0.00 | 1.59 | 1.30 | 80 | 1014.9 |
| 20260903171704 | 84 | 269 | 2.0 | 9.0 | 0.00 | 1.60 | 1.30 | 82 | 1015.0 |
| 20260903170704 | 83 | 285 | 0.0 | 5.0 | 0.00 | 1.64 | 1.30 | 82 | 1015.3 |
| 20260903170204 | 82 | 284 | 2.0 | 7.0 | 0.00 | 1.65 | 1.30 | 82 | 1015.4 |
| 20260903165703 | 82 | 263 | 0.0 | 8.0 | 0.00 | 1.66 | 1.30 | 83 | 1015.6 |
| 20260903164703 | 83 | 277 | 1.0 | 5.0 | 0.00 | 1.66 | 1.30 | 85 | 1015.7 |
| 20260903164203 | 84 | 298 | 3.0 | 5.0 | 0.00 | 1.66 | 1.30 | 83 | 1015.7 |
| 20260903163703 | 83 | 288 | 1.0 | 7.0 | 0.00 | 1.66 | 1.30 | 84 | 1015.7 |
| 20260903163203 | 82 | 267 | 2.0 | 8.0 | 0.00 | 1.66 | 1.30 | 85 | 1015.8 |
| 20260903162703 | 83 | 287 | 0.0 | 3.0 | 0.00 | 1.66 | 1.30 | 85 | 1015.8 |
| 20260903162203 | 83 | 240 | 2.0 | 3.0 | 0.00 | 1.66 | 1.30 | 86 | 1015.9 |
| 20260903161704 | 82 | 283 | 0.0 | 8.0 | 0.00 | 1.66 | 1.30 | 84 | 1015.9 |
| 20260903161203 | 82 | 279 | 0.0 | 7.0 | 0.00 | 1.66 | 1.30 | 88 | 1016.0 |
| 20260903160703 | 81 | 263 | 2.0 | 8.0 | 0.00 | 1.66 | 1.30 | 86 | 1016.1 |
| 20260903160203 | 82 | 276 | 2.0 | 8.0 | 0.00 | 1.66 | 1.30 | 86 | 1016.2 |
| 20260903155703 | 81 | 289 | 1.0 | 8.0 | 0.00 | 1.66 | 1.30 | 89 | 1016.2 |
| 20260903155203 | 81 | 274 | 1.0 | 7.0 | 0.00 | 1.66 | 1.30 | 89 | 1016.5 |
| 20260903154704 | 80 | 301 | 2.0 | 5.0 | 0.00 | 1.66 | 1.30 | 91 | 1016.7 |
| 20260903153702 | 80 | 260 | 1.0 | 8.0 | 0.00 | 1.66 | 1.30 | 90 | 1016.7 |
| 20260903153203 | 80 | 322 | 1.0 | 7.0 | 0.00 | 1.66 | 1.30 | 90 | 1016.8 |
| 20260903152703 | 82 | 280 | 1.0 | 7.0 | 0.00 | 1.66 | 1.30 | 88 | 1016.7 |
| 20260903151704 | 82 | 249 | 1.0 | 5.0 | 0.00 | 1.66 | 1.30 | 88 | 1016.7 |
| 20260903151204 | 82 | 291 | 1.0 | 7.0 | 0.00 | 1.66 | 1.30 | 89 | 1016.3 |
| 20260903150703 | 81 | 255 | 1.0 | 7.0 | 0.00 | 1.66 | 1.30 | 89 | 1016.5 |
| 20260903150203 | 81 | 249 | 1.0 | 5.0 | 0.00 | 1.66 | 1.30 | 89 | 1016.9 |
| 20260903145703 | 80 | 262 | 1.0 | 5.0 | 0.00 | 1.66 | 1.30 | 90 | 1017.0 |
| 20260903145203 | 79 | 289 | 0.0 | 3.0 | 0.00 | 1.66 | 1.30 | 91 | 1016.9 |
| 20260903144703 | 79 | 278 | 1.0 | 5.0 | 0.00 | 1.66 | 1.30 | 90 | 1016.9 |
| 20260903144203 | 79 | 286 | 1.0 | 3.0 | 0.00 | 1.66 | 1.30 | 92 | 1016.9 |
| 20260903143203 | 79 | 236 | 2.0 | 5.0 | 0.00 | 1.66 | 1.30 | 92 | 1016.6 |
| 20260903142704 | 79 | 286 | 0.0 | 1.0 | 0.00 | 1.66 | 1.30 | 95 | 1016.4 |
| 20260903142203 | 77 | 290 | 0.0 | 1.0 | 0.00 | 1.66 | 1.30 | 98 | 1016.5 |
| 20260903141203 | 76 | 285 | 1.0 | 3.0 | 0.00 | 1.66 | 1.30 | 99 | 1016.1 |
| 20260903140703 | 76 | 282 | 1.0 | 3.0 | 0.00 | 1.66 | 1.30 | 99 | 1016.0 |
| 20260903140203 | 74 | 271 | 2.0 | 9.0 | 0.00 | 1.66 | 1.30 | 99 | 1016.1 |
| 20260903135703 | 73 | 289 | 4.0 | 8.0 | 0.00 | 1.66 | 1.30 | 99 | 1016.1 |
| 20260903134703 | 74 | 286 | 0.0 | 7.0 | 0.00 | 1.66 | 1.30 | 99 | 1016.4 |
| 20260903133704 | 73 | 273 | 1.0 | 5.0 | 0.00 | 1.66 | 1.30 | 99 | 1016.2 |
| 20260903133207 | 73 | 287 | 1.0 | 9.0 | 0.00 | 1.66 | 1.30 | 99 | 1016.1 |
| 20260903132704 | 73 | 262 | 2.0 | 8.0 | 0.00 | 1.66 | 1.30 | 99 | 1016.2 |
| 20260903131703 | 74 | 281 | 0.0 | 8.0 | 0.00 | 1.66 | 1.30 | 99 | 1015.8 |
| 20260903131203 | 73 | 271 | 0.0 | 7.0 | 0.00 | 1.66 | 1.30 | 99 | 1016.0 |
| 20260903130703 | 74 | 268 | 3.0 | 7.0 | 0.00 | 1.66 | 1.30 | 99 | 1015.7 |
| 20260903130203 | 73 | 284 | 0.0 | 7.0 | 0.00 | 1.66 | 1.30 | 99 | 1015.9 |
| 20260903125704 | 73 | 253 | 2.0 | 7.0 | 0.00 | 1.66 | 1.30 | 99 | 1016.0 |
| 20260903125204 | 72 | 280 | 1.0 | 5.0 | 0.00 | 1.66 | 1.30 | 99 | 1016.1 |
| 20260903123703 | 72 | 282 | 0.0 | 3.0 | 0.01 | 1.66 | 1.30 | 99 | 1016.2 |
| 20260903122703 | 71 | 266 | 1.0 | 5.0 | 0.01 | 1.66 | 1.30 | 99 | 1015.9 |
| 20260903120204 | 69 | 292 | 0.0 | 1.0 | 0.01 | 1.66 | 1.30 | 99 | 1016.2 |
| 20260903115703 | 69 | 293 | 0.0 | 3.0 | 0.01 | 1.66 | 1.30 | 99 | 1016.2 |
| 20260903115203 | 69 | 291 | 1.0 | 3.0 | 0.01 | 1.66 | 1.30 | 99 | 1016.1 |
| 20260903114704 | 69 | 295 | 0.0 | 1.0 | 0.00 | 1.65 | 1.29 | 99 | 1015.9 |
| 20260903114204 | 68 | 268 | 0.0 | 0.0 | 0.00 | 1.65 | 1.29 | 99 | 1016.1 |
| 20260903113703 | 68 | 268 | 0.0 | 1.0 | 0.01 | 1.65 | 1.29 | 99 | 1015.9 |
| 20260903113204 | 68 | 268 | 1.0 | 3.0 | 0.01 | 1.65 | 1.29 | 99 | 1015.4 |
| 20260903112703 | 68 | 266 | 1.0 | 3.0 | 0.01 | 1.65 | 1.29 | 99 | 1016.0 |
| 20260903112203 | 68 | 294 | 0.0 | 0.0 | 0.01 | 1.65 | 1.29 | 99 | 1016.5 |
| 20260903111703 | 68 | 293 | 0.0 | 1.0 | 0.01 | 1.65 | 1.29 | 99 | 1016.6 |
| 20260903110704 | 68 | 287 | 0.0 | 0.0 | 0.01 | 1.65 | 1.29 | 99 | 1016.6 |
| 20260903110203 | 68 | 287 | 0.0 | 0.0 | 0.01 | 1.65 | 1.29 | 99 | 1016.6 |
| 20260903105704 | 68 | 287 | 0.0 | 0.0 | 0.01 | 1.65 | 1.29 | 99 | 1017.0 |
| 20260903105203 | 68 | 287 | 0.0 | 3.0 | 0.01 | 1.65 | 1.29 | 99 | 1017.4 |
| 20260903104703 | 68 | 292 | 0.0 | 1.0 | 0.01 | 1.65 | 1.29 | 99 | 1017.6 |
| 20260903104204 | 68 | 275 | 0.0 | 0.0 | 0.01 | 1.65 | 1.29 | 99 | 1017.6 |
| 20260903103703 | 68 | 275 | 0.0 | 0.0 | 0.00 | 1.64 | 1.28 | 99 | 1018.0 |
| 20260903103204 | 68 | 275 | 0.0 | 0.0 | 0.01 | 1.64 | 1.28 | 99 | 1017.6 |
| 20260903102703 | 68 | 275 | 0.0 | 0.0 | 0.01 | 1.64 | 1.28 | 99 | 1017.6 |
| 20260903102203 | 68 | 274 | 0.0 | 1.0 | 0.01 | 1.64 | 1.28 | 99 | 1017.3 |
| 20260903101704 | 68 | 273 | 0.0 | 1.0 | 0.02 | 1.64 | 1.28 | 99 | 1017.2 |
| 20260903101204 | 68 | 273 | 1.0 | 1.0 | 0.03 | 1.64 | 1.28 | 99 | 1017.1 |
| 20260903100703 | 68 | 273 | 0.0 | 0.0 | 0.04 | 1.64 | 1.28 | 99 | 1016.9 |
| 20260903100204 | 68 | 273 | 0.0 | 0.0 | 0.07 | 1.64 | 1.28 | 99 | 1017.2 |
| 20260903095704 | 68 | 273 | 0.0 | 0.0 | 0.08 | 1.64 | 1.28 | 99 | 1017.1 |
| 20260903095205 | 68 | 273 | 0.0 | 0.0 | 0.10 | 1.64 | 1.28 | 99 | 1017.2 |
| 20260903094205 | 68 | 273 | 0.0 | 0.0 | 0.12 | 1.64 | 1.28 | 99 | 1017.4 |
| 20260903093703 | 68 | 273 | 0.0 | 0.0 | 0.13 | 1.64 | 1.28 | 99 | 1017.1 |
| 20260903093204 | 68 | 273 | 0.0 | 1.0 | 0.14 | 1.63 | 1.27 | 99 | 1017.3 |
| 20260903092703 | 68 | 273 | 0.0 | 3.0 | 0.17 | 1.63 | 1.27 | 99 | 1017.4 |
| 20260903091704 | 68 | 302 | 0.0 | 1.0 | 0.19 | 1.62 | 1.26 | 99 | 1017.6 |
| 20260903090704 | 67 | 313 | 0.0 | 0.0 | 0.36 | 1.60 | 1.24 | 99 | 1017.9 |
| 20260903085703 | 67 | 290 | 0.0 | 0.0 | 0.49 | 1.56 | 1.20 | 99 | 1017.8 |
| 20260903085204 | 67 | 290 | 0.0 | 0.0 | 0.64 | 1.54 | 1.18 | 99 | 1017.9 |
| 20260903084704 | 67 | 290 | 0.0 | 0.0 | 0.68 | 1.53 | 1.17 | 99 | 1017.5 |
| 20260903084204 | 67 | 290 | 0.0 | 1.0 | 0.67 | 1.52 | 1.16 | 99 | 1017.6 |
| 20260903083204 | 67 | 10 | 0.0 | 3.0 | 0.64 | 1.49 | 1.13 | 99 | 1017.6 |
| 20260903082704 | 67 | 9 | 0.0 | 1.0 | 0.61 | 1.46 | 1.10 | 99 | 1017.9 |
| 20260903082203 | 67 | 10 | 0.0 | 1.0 | 0.60 | 1.45 | 1.09 | 99 | 1018.2 |
| 20260903081705 | 67 | 10 | 1.0 | 7.0 | 0.58 | 1.43 | 1.07 | 99 | 1018.2 |
| 20260903081204 | 68 | 26 | 2.0 | 20.0 | 0.52 | 1.36 | 1.00 | 99 | 1018.6 |
| 20260903080704 | 68 | 280 | 8.0 | 24.0 | 0.44 | 1.24 | 0.88 | 99 | 1019.2 |
| 20260903080203 | 69 | 4 | 9.0 | 24.0 | 0.33 | 1.12 | 0.76 | 99 | 1019.0 |
| 20260903075704 | 69 | 350 | 6.0 | 13.0 | 0.28 | 1.07 | 0.71 | 99 | 1018.2 |
| 20260903075203 | 69 | 9 | 3.0 | 9.0 | 0.11 | 0.90 | 0.54 | 99 | 1018.6 |
| 20260903074204 | 69 | 1 | 0.0 | 1.0 | 0.06 | 0.85 | 0.49 | 99 | 1016.7 |
| 20260903073703 | 69 | 0 | 1.0 | 3.0 | 0.06 | 0.85 | 0.49 | 99 | 1017.0 |
| 20260903073203 | 69 | 0 | 0.0 | 0.0 | 0.06 | 0.85 | 0.49 | 99 | 1017.3 |
| 20260903072703 | 69 | 0 | 0.0 | 0.0 | 0.06 | 0.85 | 0.49 | 99 | 1017.4 |
| 20260903072204 | 69 | 0 | 0.0 | 1.0 | 0.06 | 0.85 | 0.49 | 99 | 1017.4 |
| 20260903071203 | 69 | 341 | 1.0 | 5.0 | 0.05 | 0.84 | 0.48 | 99 | 1017.4 |
| 20260903070704 | 69 | 295 | 0.0 | 3.0 | 0.01 | 0.80 | 0.44 | 99 | 1017.8 |
| 20260903070203 | 69 | 295 | 0.0 | 0.0 | 0.00 | 0.79 | 0.43 | 99 | 1017.6 |
| 20260903065704 | 69 | 295 | 0.0 | 0.0 | 0.00 | 0.79 | 0.43 | 99 | 1017.4 |
| 20260903065203 | 69 | 294 | 0.0 | 1.0 | 0.00 | 0.79 | 0.43 | 99 | 1017.5 |
| 20260903064702 | 69 | 294 | 0.0 | 1.0 | 0.00 | 0.79 | 0.43 | 99 | 1017.3 |
| 20260903064203 | 69 | 295 | 0.0 | 1.0 | 0.01 | 0.79 | 0.43 | 99 | 1017.5 |
| 20260903063703 | 69 | 294 | 0.0 | 1.0 | 0.03 | 0.79 | 0.43 | 99 | 1017.7 |
| 20260903063203 | 69 | 295 | 0.0 | 1.0 | 0.13 | 0.79 | 0.43 | 99 | 1017.8 |
| 20260903062704 | 69 | 287 | 1.0 | 1.0 | 0.31 | 0.79 | 0.43 | 99 | 1017.7 |
| 20260903062203 | 69 | 295 | 0.0 | 5.0 | 0.40 | 0.79 | 0.43 | 99 | 1017.8 |
| 20260903061704 | 69 | 49 | 2.0 | 5.0 | 0.42 | 0.79 | 0.43 | 99 | 1017.8 |
| 20260903061203 | 69 | 41 | 0.0 | 5.0 | 0.43 | 0.79 | 0.43 | 99 | 1018.1 |
| 20260903060703 | 69 | 49 | 1.0 | 5.0 | 0.43 | 0.79 | 0.43 | 99 | 1018.1 |
| 20260903060203 | 69 | 53 | 2.0 | 5.0 | 0.43 | 0.79 | 0.43 | 99 | 1018.1 |
| 20260903055703 | 69 | 306 | 1.0 | 1.0 | 0.43 | 0.79 | 0.43 | 99 | 1018.2 |
| 20260903054703 | 69 | 263 | 1.0 | 7.0 | 0.43 | 0.79 | 0.43 | 99 | 1018.0 |
| 20260903054203 | 69 | 18 | 3.0 | 9.0 | 0.42 | 0.78 | 0.42 | 99 | 1017.4 |
| 20260903053203 | 70 | 101 | 6.0 | 16.0 | 0.30 | 0.66 | 0.30 | 99 | 1018.7 |
| 20260903052703 | 70 | 319 | 5.0 | 9.0 | 0.12 | 0.48 | 0.12 | 99 | 1019.8 |
| 20260903051703 | 70 | 6 | 3.0 | 7.0 | 0.01 | 0.37 | 0.01 | 99 | 1018.9 |
| 20260903051203 | 71 | 52 | 1.0 | 8.0 | 0.00 | 0.36 | 0.00 | 99 | 1018.1 |
| 20260903050703 | 71 | 10 | 2.0 | 7.0 | 0.00 | 0.36 | 0.00 | 99 | 1018.1 |
| 20260903045703 | 71 | 55 | 2.0 | 5.0 | 0.18 | 0.36 | 0.00 | 99 | 1018.1 |
| 20260903045203 | 71 | 350 | 1.0 | 1.0 | 0.19 | 0.36 | 0.00 | 99 | 1018.0 |
| 20260903044703 | 71 | 350 | 0.0 | 3.0 | 0.19 | 0.36 | 0.00 | 99 | 1018.4 |
| 20260903044203 | 71 | 354 | 0.0 | 3.0 | 0.19 | 0.36 | 0.00 | 99 | 1018.1 |
| 20260903043703 | 71 | 307 | 0.0 | 3.0 | 0.19 | 0.36 | 0.00 | 99 | 1018.2 |
| 20260903043203 | 71 | 278 | 1.0 | 3.0 | 0.19 | 0.36 | 0.00 | 99 | 1018.0 |
| 20260903042204 | 71 | 54 | 1.0 | 7.0 | 0.19 | 0.36 | 0.00 | 99 | 1017.6 |
| 20260903041703 | 71 | 337 | 0.0 | 1.0 | 0.19 | 0.36 | 0.00 | 99 | 1018.2 |
| 20260903041203 | 71 | 336 | 0.0 | 1.0 | 0.19 | 0.36 | 0.00 | 99 | 1018.5 |
| 20260903040705 | 71 | 310 | 0.0 | 0.0 | 0.19 | 0.36 | 0.00 | 99 | 1018.1 |
| 20260903040204 | 71 | 307 | 0.0 | 0.0 | 0.19 | 0.36 | 0.00 | 99 | 1018.1 |
| 20260903035704 | 71 | 300 | 0.0 | 0.0 | 0.01 | 0.18 | 0.18 | 99 | 1018.2 |
| 20260903035204 | 71 | 323 | 0.0 | 0.0 | 0.01 | 0.18 | 0.18 | 99 | 1018.4 |
| 20260903034704 | 71 | 324 | 0.0 | 0.0 | 0.00 | 0.17 | 0.17 | 99 | 1018.3 |
| 20260903034203 | 71 | 324 | 0.0 | 0.0 | 0.00 | 0.17 | 0.17 | 99 | 1018.4 |
| 20260903033705 | 71 | 313 | 0.0 | 0.0 | 0.00 | 0.17 | 0.17 | 99 | 1018.4 |
| 20260903032703 | 71 | 323 | 0.0 | 0.0 | 0.00 | 0.17 | 0.17 | 99 | 1018.7 |
| 20260903031703 | 71 | 275 | 0.0 | 0.0 | 0.00 | 0.17 | 0.17 | 99 | 1018.5 |
| 20260903031203 | 71 | 275 | 0.0 | 1.0 | 0.00 | 0.17 | 0.17 | 99 | 1018.4 |
| 20260903030703 | 71 | 275 | 1.0 | 1.0 | 0.00 | 0.17 | 0.17 | 99 | 1018.3 |
| 20260903030204 | 71 | 275 | 1.0 | 1.0 | 0.00 | 0.17 | 0.17 | 99 | 1018.3 |
| 20260903025703 | 71 | 325 | 0.0 | 1.0 | 0.00 | 0.17 | 0.17 | 99 | 1018.4 |
| 20260903025205 | 71 | 331 | 0.0 | 0.0 | 0.00 | 0.17 | 0.17 | 99 | 1018.4 |
| 20260903024704 | 71 | 331 | 0.0 | 0.0 | 0.00 | 0.17 | 0.17 | 99 | 1018.5 |
| 20260903024204 | 71 | 331 | 0.0 | 0.0 | 0.00 | 0.17 | 0.17 | 99 | 1018.4 |
| 20260903023704 | 71 | 331 | 0.0 | 0.0 | 0.00 | 0.17 | 0.17 | 99 | 1018.4 |
| 20260903021703 | 71 | 350 | 0.0 | 1.0 | 0.00 | 0.17 | 0.17 | 99 | 1018.5 |
| 20260903021204 | 71 | 296 | 1.0 | 3.0 | 0.00 | 0.17 | 0.17 | 99 | 1018.3 |
| 20260903020203 | 71 | 327 | 1.0 | 1.0 | 0.00 | 0.17 | 0.17 | 99 | 1018.0 |
| 20260903015704 | 71 | 332 | 0.0 | 1.0 | 0.00 | 0.17 | 0.17 | 99 | 1018.2 |
| 20260903014205 | 71 | 301 | 1.0 | 1.0 | 0.00 | 0.17 | 0.17 | 99 | 1018.3 |
| 20260903013704 | 71 | 321 | 0.0 | 3.0 | 0.00 | 0.17 | 0.17 | 99 | 1018.2 |
| 20260903013204 | 71 | 325 | 1.0 | 3.0 | 0.00 | 0.17 | 0.17 | 99 | 1018.0 |
| 20260903012703 | 71 | 354 | 1.0 | 5.0 | 0.00 | 0.17 | 0.17 | 99 | 1018.2 |
| 20260903012205 | 71 | 282 | 0.0 | 1.0 | 0.00 | 0.17 | 0.17 | 99 | 1018.5 |
| 20260903011704 | 71 | 338 | 1.0 | 3.0 | 0.00 | 0.17 | 0.17 | 99 | 1018.3 |
| 20260903011203 | 71 | 358 | 1.0 | 3.0 | 0.00 | 0.17 | 0.17 | 99 | 1018.4 |
| 20260903010704 | 71 | 11 | 2.0 | 8.0 | 0.00 | 0.17 | 0.17 | 99 | 1018.4 |
| 20260903010204 | 71 | 333 | 1.0 | 5.0 | 0.00 | 0.17 | 0.17 | 99 | 1018.3 |
| 20260903005703 | 71 | 63 | 1.0 | 5.0 | 0.00 | 0.17 | 0.17 | 99 | 1018.2 |
| 20260903005204 | 71 | 278 | 1.0 | 1.0 | 0.00 | 0.17 | 0.17 | 99 | 1018.5 |
| 20260903004703 | 71 | 9 | 1.0 | 3.0 | 0.00 | 0.17 | 0.17 | 99 | 1018.5 |
| 20260903004204 | 71 | 17 | 1.0 | 3.0 | 0.00 | 0.17 | 0.17 | 99 | 1018.5 |
| 20260903003703 | 71 | 344 | 0.0 | 1.0 | 0.00 | 0.17 | 0.17 | 99 | 1018.5 |
| 20260903003205 | 71 | 289 | 0.0 | 1.0 | 0.00 | 0.17 | 0.17 | 99 | 1018.4 |
| 20260903002704 | 72 | 340 | 0.0 | 1.0 | 0.00 | 0.17 | 0.17 | 99 | 1018.5 |
| 20260903002205 | 72 | 340 | 1.0 | 5.0 | 0.00 | 0.17 | 0.17 | 99 | 1018.3 |
| 20260903001704 | 72 | 276 | 0.0 | 3.0 | 0.00 | 0.17 | 0.17 | 99 | 1018.3 |
| 20260903001204 | 72 | 289 | 0.0 | 1.0 | 0.00 | 0.17 | 0.17 | 99 | 1018.3 |
| 20260903000704 | 72 | 288 | 0.0 | 1.0 | 0.00 | 0.17 | 0.17 | 99 | 1018.0 |
| 20260903000205 | 72 | 346 | 0.0 | 3.0 | 0.00 | 0.17 | 0.17 | 99 | 1017.7 |
| 20260902235703 | 72 | 23 | 2.0 | 5.0 | 0.00 | 0.17 | 0.17 | 99 | 1018.2 |
| 20260902234705 | 72 | 23 | 1.0 | 5.0 | 0.00 | 0.17 | 0.17 | 99 | 1017.8 |
| 20260902234205 | 72 | 68 | 2.0 | 5.0 | 0.00 | 0.17 | 0.17 | 99 | 1017.9 |
| 20260902233704 | 72 | 40 | 2.0 | 5.0 | 0.00 | 0.17 | 0.17 | 99 | 1018.0 |
| 20260902232704 | 72 | 292 | 1.0 | 5.0 | 0.00 | 0.17 | 0.17 | 99 | 1017.8 |
| 20260902232204 | 72 | 83 | 2.0 | 5.0 | 0.00 | 0.17 | 0.17 | 99 | 1018.0 |
| 20260902231204 | 72 | 73 | 2.0 | 3.0 | 0.00 | 0.17 | 0.17 | 99 | 1018.1 |
| 20260902230704 | 72 | 24 | 1.0 | 3.0 | 0.00 | 0.17 | 0.17 | 99 | 1018.0 |
| 20260902230204 | 72 | 25 | 0.0 | 3.0 | 0.00 | 0.17 | 0.17 | 99 | 1018.2 |
| 20260902225203 | 72 | 12 | 1.0 | 3.0 | 0.00 | 0.17 | 0.17 | 99 | 1018.2 |
| 20260902224704 | 73 | 26 | 0.0 | 5.0 | 0.00 | 0.17 | 0.17 | 99 | 1018.1 |
| 20260902224205 | 73 | 17 | 1.0 | 5.0 | 0.00 | 0.17 | 0.17 | 99 | 1018.1 |
| 20260902223704 | 73 | 42 | 1.0 | 5.0 | 0.00 | 0.17 | 0.17 | 99 | 1018.1 |
| 20260902223204 | 73 | 30 | 1.0 | 5.0 | 0.00 | 0.17 | 0.17 | 99 | 1018.1 |
| 20260902222721 | 74 | 29 | 2.0 | 7.0 | 0.00 | 0.17 | 0.17 | 99 | 1018.4 |
| 20260902222222 | 74 | 287 | 1.0 | 7.0 | 0.00 | 0.17 | 0.17 | 99 | 1018.4 |
| 20260902221221 | 74 | 9 | 0.0 | 3.0 | 0.00 | 0.17 | 0.17 | 99 | 1018.5 |
| 20260902220722 | 74 | 67 | 0.0 | 8.0 | 0.00 | 0.17 | 0.17 | 99 | 1018.4 |
| 20260902220221 | 74 | 66 | 2.0 | 8.0 | 0.00 | 0.17 | 0.17 | 99 | 1018.4 |
| 20260902215722 | 74 | 334 | 1.0 | 3.0 | 0.00 | 0.17 | 0.17 | 99 | 1018.4 |
| 20260902215221 | 74 | 306 | 0.0 | 1.0 | 0.00 | 0.17 | 0.17 | 99 | 1018.6 |
| 20260902214722 | 74 | 313 | 0.0 | 1.0 | 0.00 | 0.17 | 0.17 | 99 | 1018.5 |
| 20260902214221 | 74 | 329 | 1.0 | 1.0 | 0.00 | 0.17 | 0.17 | 99 | 1018.6 |
| 20260902213722 | 74 | 290 | 0.0 | 1.0 | 0.00 | 0.17 | 0.17 | 99 | 1018.8 |
| 20260902213221 | 73 | 290 | 0.0 | 0.0 | 0.00 | 0.17 | 0.17 | 99 | 1018.8 |
| 20260902212721 | 74 | 290 | 0.0 | 0.0 | 0.00 | 0.17 | 0.17 | 99 | 1018.6 |
| 20260902212222 | 73 | 290 | 0.0 | 0.0 | 0.00 | 0.17 | 0.17 | 99 | 1018.4 |
| 20260902211722 | 73 | 290 | 0.0 | 1.0 | 0.00 | 0.17 | 0.17 | 99 | 1018.4 |
| 20260902210722 | 73 | 286 | 0.0 | 1.0 | 0.00 | 0.17 | 0.17 | 99 | 1018.3 |
| 20260902210222 | 73 | 286 | 0.0 | 1.0 | 0.00 | 0.17 | 0.17 | 99 | 1018.0 |
| 20260902205722 | 72 | 296 | 1.0 | 3.0 | 0.00 | 0.17 | 0.17 | 99 | 1018.0 |
| 20260902205222 | 72 | 272 | 2.0 | 3.0 | 0.00 | 0.17 | 0.17 | 99 | 1017.9 |
| 20260902204722 | 73 | 335 | 0.0 | 3.0 | 0.00 | 0.17 | 0.17 | 99 | 1018.3 |
| 20260902204222 | 73 | 267 | 1.0 | 3.0 | 0.00 | 0.17 | 0.17 | 99 | 1018.1 |
| 20260902203723 | 72 | 267 | 1.0 | 5.0 | 0.00 | 0.17 | 0.17 | 99 | 1018.1 |
| 20260902201721 | 72 | 59 | 0.0 | 3.0 | 0.00 | 0.17 | 0.17 | 99 | 1018.5 |